User: anonymous   Login
Location: Bern�tre
(50.1974°N, 2.0915°E)
Time: 17:27:51
(UTC+00:00)
Language:

NOSS 2-3 (D) - Orbit

View from above orbital plane
View from above orbital plane
View from above satellite
View from above satellite

Ground track
Ground track

The orbit data is extracted from the following two-line orbital elements,

1 23862U 96029D   20328.23576825 0.00000000  00000-0  00000-0 0    03
2 23862  63.3624  64.1178 0713322  23.7624 336.2376 13.40899201    03
Epoch (UTC): 23 November 2020 05:39:30
Eccentricity: 0.0713322
inclination: 63.3624°
perigee height: 572 km
apogee height: 1640 km
right ascension of ascending node: 64.1178°
argument of perigee: 23.7624°
revolutions per day: 13.40899201
mean anomaly at epoch: 336.2376°
orbit number at epoch: 0

The dashed part of the orbit path shows where the satellite is in the earth's shadow,  

DLR